RADFXSAT (FOX-1B) (43017 NORAD) Tracking and Keplerian Element Data

This shows tracking and keplerian element data for the satellite.

Feedback or suggestion? Click here.




ElementValue
Catalog43017
NameRADFXSAT (FOX-1B)
Epoch Orbit12789
Epoch Day93.20465686
Epoch Year2020
RAAN8.3738
Inclination97.7253
Eccentricity0.0255963
Argument of Perigee298.9792
Mean Anonmoly58.5979
Mean Motion14.78865874
Decay Rate5.55E-06
L11 43017U 17073E 20093.20465686 .00000555 00000-0 49216-4 0 9995
L22 43017 97.7253 8.3738 0255963 298.9792 58.5979 14.78865874127893

Live tracking and technical data element details for RADFXSAT (FOX-1B) (NORAD 43017). RADFXSAT (FOX-1B) can be tracked NOW for your location showing map with azimuth and elevation plus other details from your city location.

Track the satellite on the map from your city or location and see movement details for azimuth, elevation, latitude, longitude, range, height, and movement on the map or in text.







IsCatalogInMostPopularTable: catalog: 43017, numindb: 741
Update: records affected: 1



GetName: 43017 RADFXSAT (FOX-1B)

Hit Count: updated at: Thu, 09 Apr 2020 16:56:51 GMT